User: anonymous   Login
Location: Montr�al
(45.5000°N, 73.5830°W)
Time: 20:18:10
(UTC-04:00)
Language:

Cosmos 2369 - Orbit

View from above orbital plane
View from above orbital plane
View from above satellite
View from above satellite

Ground track
Ground track

The orbit data is extracted from the following two-line orbital elements,

1 26069U 00006A   16146.93967801 +.00000207 +00000-0 +13549-3 0  9994
2 26069 070.9968 090.2856 0009262 096.9752 263.2423 14.13341298104756
Epoch (UTC): 25 May 2016 22:33:08
Eccentricity: 0.0009262
inclination: 70.9968°
perigee height: 841 km
apogee height: 854 km
right ascension of ascending node: 90.2856°
argument of perigee: 96.9752°
revolutions per day: 14.13341298
mean anomaly at epoch: 263.2423°
orbit number at epoch: 10475

The dashed part of the orbit path shows where the satellite is in the earth's shadow,  

DLR